METEOR 2-1

导读

METEOR 2-1(流星2-1)是苏联解体后独联体(CIS)继承的苏联第二代极轨气象卫星,1975年7月11日发射升空。作为流星二号系列的首星,运行于近900公里高度的非太阳同步极轨道,质量约1300千克,携带气象观测载荷,可获取云图数据,为气象预报与气候研究提供支撑,开启了苏联第二代气象卫星的应用进程。

基本信息
目录编号:
8026
目录名称:
METEOR 2-1
国际标识:
1975-064A
轨道中心:
EARTH
卫星名称:
METEOR 2-1
卫星全名:
--
卫星状态:
在轨 (已飞行18599 天)
发射日期:
1975-07-11 UTC
国别 :
俄罗斯(独联体) (CIS)
星等 :
--
轨道信息
数据来源 国际轨道数据 AOE轨道数据
星历时间 2026-06-12T10:10:54+0800
17小时前
查看轨道信息
2026-06-07T00:00:00+0800
6天前
查看轨道信息
半长轴 7234.738km 7234.747km
偏心率 0.0021085 0.0021053
轨道倾角 81.279° 81.280°
近地点辐角 232.045° 249.330°
升交点赤经 28.212° 33.477°
平近点角 127.882° 296.792°
近地点 841.346km 841.378km
远地点 871.856km 871.842km
周期 102.069分钟 102.069分钟
每日圈数 14.108101 14.108077
详细信息
使用方式:
暂无
2D轨道图
3D轨道图
轨道高度分析图
轨道倾角分析图
轨道综合分析图
查看轨道综合分析图